Tiempo cada hora Caxhuacán

Hoy, 21 Enero, Jueves

Tiempo Temperatura Precipitaciones Viento Presión Humedad
00:00 +17°C° 0 mm 0 mps 701 mmHg 94%
01:00 +17°C° 0 mm 0 mps 701 mmHg 93%
02:00 +17°C° 0 mm 0 mps 700 mmHg 92%
03:00 +17°C° 0 mm 0 mps 700 mmHg 91%
04:00 +17°C° 0 mm 0 mps 700 mmHg 90%
05:00 +18°C° 0 mm 1 mps 700 mmHg 89%
06:00 +20°C° 0 mm 1 mps 701 mmHg 83%
07:00 +19°C° 0 mm 0 mps 701 mmHg 78%
08:00 +20°C° 0 mm 0 mps 701 mmHg 73%
09:00 +24°C° 0 mm 1 mps 701 mmHg 70%
10:00 +25°C° 0 mm 1 mps 701 mmHg 67%
11:00 +26°C° 0 mm 2 mps 700 mmHg 64%
12:00 +27°C° 0 mm 2 mps 699 mmHg 65%
13:00 +27°C° 0 mm 2 mps 698 mmHg 65%
14:00 +27°C° 0 mm 2 mps 697 mmHg 66%
15:00 +26°C° 0 mm 2 mps 697 mmHg 74%
16:00 +24°C° 0 mm 1 mps 697 mmHg 81%
17:00 +23°C° 0 mm 1 mps 697 mmHg 89%
18:00 +22°C° 0 mm 1 mps 697 mmHg 89%
19:00 +21°C° 0 mm 1 mps 697 mmHg 89%
20:00 +21°C° 0 mm 1 mps 697 mmHg 89%
21:00 +21°C° 0 mm 1 mps 697 mmHg 84%
22:00 +21°C° 0 mm 1 mps 697 mmHg 80%
23:00 +21°C° 0 mm 1 mps 697 mmHg 75%

Mañana, 22 Enero, Viernes

Tiempo Temperatura Precipitaciones Viento Presión Humedad
00:00 +21°C° 0 mm 1 mps 697 mmHg 74%
01:00 +20°C° 0 mm 1 mps 697 mmHg 73%
02:00 +20°C° 0 mm 1 mps 696 mmHg 71%
03:00 +20°C° 0 mm 1 mps 696 mmHg 70%
04:00 +20°C° 0 mm 1 mps 696 mmHg 69%
05:00 +20°C° 0 mm 1 mps 697 mmHg 69%
06:00 +21°C° 0 mm 1 mps 697 mmHg 66%
07:00 +23°C° 0 mm 1 mps 698 mmHg 63%
08:00 +23°C° 0 mm 0 mps 699 mmHg 60%
09:00 +26°C° 0 mm 1 mps 698 mmHg 56%
10:00 +28°C° 0 mm 1 mps 698 mmHg 53%
11:00 +29°C° 0 mm 1 mps 698 mmHg 49%
12:00 +30°C° 0 mm 2 mps 698 mmHg 49%
13:00 +30°C° 0 mm 2 mps 697 mmHg 49%
14:00 +30°C° 0 mm 2 mps 696 mmHg 49%
15:00 +28°C° 0 mm 2 mps 696 mmHg 61%
16:00 +26°C° 0 mm 1 mps 696 mmHg 73%
17:00 +24°C° 0 mm 1 mps 696 mmHg 85%
18:00 +23°C° 0 mm 1 mps 696 mmHg 84%
19:00 +22°C° 0 mm 1 mps 697 mmHg 84%
20:00 +21°C° 0 mm 1 mps 697 mmHg 83%
21:00 +21°C° 0 mm 1 mps 697 mmHg 81%
22:00 +21°C° 0 mm 1 mps 697 mmHg 78%
23:00 +21°C° 0 mm 1 mps 697 mmHg 75%

Pasado mañana, 23 Enero, Sábado

Tiempo Temperatura Precipitaciones Viento Presión Humedad
00:00 +21°C° 0 mm 1 mps 697 mmHg 75%
01:00 +20°C° 0 mm 1 mps 697 mmHg 75%
02:00 +20°C° 0 mm 1 mps 697 mmHg 75%
03:00 +20°C° 0 mm 1 mps 697 mmHg 74%
04:00 +18°C° 0 mm 0 mps 697 mmHg 74%
05:00 +18°C° 0 mm 0 mps 697 mmHg 73%
06:00 +19°C° 0 mm 0 mps 698 mmHg 71%
07:00 +20°C° 0 mm 0 mps 698 mmHg 68%
08:00 +21°C° 0 mm 0 mps 699 mmHg 65%
09:00 +25°C° 0 mm 1 mps 699 mmHg 65%
10:00 +26°C° 0 mm 1 mps 699 mmHg 65%
11:00 +27°C° 0 mm 2 mps 698 mmHg 65%
12:00 +27°C° 0 mm 2 mps 698 mmHg 67%
13:00 +27°C° 0 mm 2 mps 697 mmHg 68%
14:00 +27°C° 0 mm 2 mps 696 mmHg 70%
15:00 +26°C° 0 mm 2 mps 696 mmHg 77%
16:00 +24°C° 0 mm 1 mps 696 mmHg 84%
17:00 +23°C° 0 mm 1 mps 696 mmHg 91%
18:00 +23°C° 0 mm 1 mps 696 mmHg 91%
19:00 +22°C° 0 mm 1 mps 696 mmHg 91%
20:00 +19°C° 0 mm 0 mps 697 mmHg 92%
21:00 +19°C° 0 mm 0 mps 696 mmHg 88%
22:00 +21°C° 0 mm 1 mps 696 mmHg 84%
23:00 +21°C° 0 mm 1 mps 696 mmHg 80%

24 Enero, Domingo

Tiempo Temperatura Precipitaciones Viento Presión Humedad
00:00 +21°C° 0 mm 1 mps 696 mmHg 78%
01:00 +21°C° 0 mm 1 mps 696 mmHg 75%
02:00 +21°C° 0 mm 1 mps 695 mmHg 73%
03:00 +21°C° 0 mm 1 mps 695 mmHg 72%
04:00 +21°C° 0 mm 1 mps 695 mmHg 70%
05:00 +20°C° 0 mm 1 mps 695 mmHg 68%
06:00 +21°C° 0 mm 1 mps 696 mmHg 66%
07:00 +23°C° 0 mm 1 mps 697 mmHg 65%
08:00 +22°C° 0 mm 0 mps 697 mmHg 63%
09:00 +25°C° 0 mm 1 mps 697 mmHg 62%
10:00 +26°C° 0 mm 1 mps 697 mmHg 61%
11:00 +27°C° 0 mm 2 mps 696 mmHg 61%
12:00 +27°C° 0 mm 2 mps 696 mmHg 61%
13:00 +28°C° 0 mm 2 mps 695 mmHg 61%
14:00 +28°C° 0 mm 2 mps 694 mmHg 61%
15:00 +27°C° 0 mm 1 mps 694 mmHg 68%
16:00 +25°C° 0 mm 1 mps 694 mmHg 75%
17:00 +22°C° 0 mm 0 mps 693 mmHg 82%
18:00 +23°C° 0 mm 1 mps 694 mmHg 79%
19:00 +23°C° 0 mm 1 mps 694 mmHg 75%
20:00 +22°C° 0 mm 1 mps 695 mmHg 71%
21:00 +22°C° 0 mm 1 mps 695 mmHg 67%
22:00 +21°C° 0 mm 2 mps 695 mmHg 63%
23:00 +21°C° 0 mm 2 mps 694 mmHg 60%

25 Enero, Lunes

Tiempo Temperatura Precipitaciones Viento Presión Humedad
00:00 +21°C° 0 mm 2 mps 694 mmHg 60%
01:00 +21°C° 0 mm 2 mps 694 mmHg 60%
02:00 +21°C° 0 mm 2 mps 694 mmHg 60%
03:00 +20°C° 0 mm 2 mps 694 mmHg 61%
04:00 +20°C° 0 mm 2 mps 694 mmHg 61%
05:00 +20°C° 0 mm 2 mps 694 mmHg 62%
06:00 +21°C° 0 mm 2 mps 695 mmHg 59%
07:00 +24°C° 0 mm 1 mps 695 mmHg 56%
08:00 +26°C° 0 mm 1 mps 696 mmHg 54%
09:00 +28°C° 0 mm 1 mps 696 mmHg 47%
10:00 +30°C° 0 mm 1 mps 696 mmHg 41%
11:00 +32°C° 0 mm 2 mps 696 mmHg 35%
12:00 +32°C° 0 mm 2 mps 695 mmHg 35%
13:00 +32°C° 0 mm 2 mps 695 mmHg 35%
14:00 +32°C° 0 mm 2 mps 694 mmHg 35%
15:00 +30°C° 0 mm 2 mps 694 mmHg 46%
16:00 +27°C° 0 mm 1 mps 693 mmHg 57%
17:00 +25°C° 0 mm 1 mps 693 mmHg 69%
18:00 +24°C° 0 mm 1 mps 694 mmHg 65%
19:00 +24°C° 0 mm 1 mps 694 mmHg 62%
20:00 +23°C° 0 mm 1 mps 695 mmHg 59%
21:00 +23°C° 0 mm 1 mps 695 mmHg 58%
22:00 +22°C° 0 mm 1 mps 695 mmHg 57%
23:00 +22°C° 0 mm 1 mps 695 mmHg 57%

26 Enero, Martes

Tiempo Temperatura Precipitaciones Viento Presión Humedad
00:00 +21°C° 0 mm 1 mps 695 mmHg 61%
01:00 +21°C° 0 mm 1 mps 695 mmHg 65%
02:00 +20°C° 0 mm 1 mps 695 mmHg 69%
03:00 +18°C° 0 mm 0 mps 695 mmHg 72%
04:00 +18°C° 0 mm 0 mps 695 mmHg 75%
05:00 +18°C° 0 mm 0 mps 695 mmHg 78%
06:00 +19°C° 0 mm 0 mps 696 mmHg 77%
07:00 +22°C° 0 mm 1 mps 697 mmHg 76%
08:00 +23°C° 0 mm 1 mps 697 mmHg 75%
09:00 +24°C° 0 mm 1 mps 697 mmHg 74%
10:00 +24°C° 0 mm 2 mps 697 mmHg 74%
11:00 +25°C° 0 mm 2 mps 697 mmHg 73%
12:00 +26°C° 0 mm 2 mps 696 mmHg 72%
13:00 +26°C° 0 mm 2 mps 695 mmHg 71%
14:00 +26°C° 0 mm 1 mps 695 mmHg 70%
15:00 +25°C° 0 mm 1 mps 694 mmHg 75%
16:00 +24°C° 0 mm 1 mps 694 mmHg 79%
17:00 +23°C° 0 mm 1 mps 694 mmHg 84%
18:00 +23°C° 0 mm 1 mps 695 mmHg 84%
19:00 +22°C° 0 mm 1 mps 695 mmHg 83%
20:00 +21°C° 0 mm 1 mps 696 mmHg 83%
21:00 +21°C° 0 mm 1 mps 696 mmHg 80%
22:00 +21°C° 0 mm 1 mps 696 mmHg 77%
23:00 +21°C° 0 mm 1 mps 696 mmHg 75%
Mostrar más